DW0231 Weather Reports


time (UTC)temp
F
wind
direction
speed
knots
gust
knots
rain 1hr
in
rain 24hr
in
rain mn
in
humidity
%
barometer
mb
20260505034536 57 33 0.0 0.0 0.00 0.00 0.17 56 1001.2
20260505033013 58 34 0.0 0.0 0.00 0.00 0.17 55 1000.8
20260505031553 59 34 0.0 0.0 0.00 0.00 0.17 53 1000.6
20260505030044 59 34 0.0 0.0 0.00 0.00 0.17 53 1000.6
20260505024521 60 34 0.0 0.0 0.00 0.00 0.17 52 1000.2
20260505023007 61 34 0.0 0.0 0.00 0.00 0.17 49 1000.1
20260505021551 62 34 0.0 0.0 0.00 0.00 0.17 47 1000.1
20260505020035 62 34 0.0 0.0 0.00 0.00 0.17 44 1000.0
20260505014517 62 34 0.0 0.0 0.00 0.00 0.17 49 1000.1
20260505013006 63 34 0.0 0.0 0.00 0.00 0.17 51 1000.3
20260505011538 64 34 0.0 0.0 0.00 0.00 0.17 48 1000.3
20260505010026 64 34 0.0 0.0 0.00 0.00 0.17 45 1000.3
20260505004514 64 34 0.0 0.0 0.00 0.00 0.17 44 1000.1
20260505003057 64 35 0.9 0.0 0.00 0.00 0.17 40 1000.3
20260505001527 65 355 2.6 0.0 0.00 0.00 0.17 40 1000.4
20260505000007 65 101 3.5 0.0 0.00 0.00 0.17 40 1000.5
20260504234605 64 76 4.3 0.0 0.00 0.00 0.17 49 1000.5
20260504233034 60 36 2.6 0.0 0.00 0.00 0.17 59 1000.9
20260504231516 57 66 2.6 0.0 0.00 0.00 0.17 67 1000.8
20260504230002 58 96 0.0 0.0 0.00 0.00 0.17 78 1001.0
20260504224553 56 96 0.0 0.0 0.00 0.00 0.17 76 1001.2
20260504223038 55 24 0.9 0.0 0.00 0.00 0.17 71 1001.2
20260504221525 56 57 1.7 0.0 0.00 0.00 0.16 65 1001.8
20260504220018 62 59 5.2 0.0 0.00 0.00 0.05 50 1002.5
20260504214551 68 56 1.7 0.0 0.00 0.00 0.00 35 1000.7
20260504213045 69 188 1.7 0.0 0.00 0.00 0.00 28 1000.4
20260504211513 70 209 0.9 0.0 0.00 0.00 0.00 29 1000.4
20260504210004 71 209 0.9 0.0 0.00 0.00 0.00 29 1000.5
20260504204600 72 209 2.6 0.0 0.00 0.00 0.00 27 1000.6
20260504203034 74 209 1.7 0.0 0.00 0.00 0.00 26 1000.6
20260504201518 75 210 1.7 0.0 0.00 0.00 0.00 27 1000.6
20260504200006 74 217 1.7 0.0 0.00 0.00 0.00 26 1000.8
20260504194551 74 186 1.7 0.0 0.00 0.00 0.00 26 1000.7
20260504193100 74 167 1.7 0.0 0.00 0.00 0.00 26 1001.0
20260504191534 73 198 2.6 0.0 0.00 0.00 0.00 26 1001.2
20260504190014 74 200 2.6 0.0 0.00 0.00 0.00 25 1001.3
20260504184509 73 185 1.7 0.0 0.00 0.00 0.00 26 1001.6
20260504183102 72 195 1.7 0.0 0.00 0.00 0.00 27 1001.9
20260504181525 72 213 3.5 0.0 0.00 0.00 0.00 28 1002.0
20260504180018 72 198 2.6 0.0 0.00 0.00 0.00 28 1002.2
20260504174513 71 209 2.6 0.0 0.00 0.00 0.00 29 1002.2
20260504173050 70 212 1.7 0.0 0.00 0.00 0.00 30 1002.4
20260504171513 69 212 2.6 0.0 0.00 0.00 0.00 33 1002.8
20260504170105 69 222 1.7 0.0 0.00 0.00 0.00 32 1002.8
20260504081543 53 227 0.0 0.0 0.00 0.00 0.00 40 1003.6
20260504044508 59 227 0.0 0.0 0.00 0.00 0.00 33 1004.1
20260504043102 59 227 0.0 0.0 0.00 0.00 0.00 34 1004.1
20260504041524 60 227 0.0 0.0 0.00 0.00 0.00 32 1004.1
20260504040020 60 227 0.0 0.0 0.00 0.00 0.00 31 1004.1